Weather History for Banff, AB

Change the Weather History Date:

Friday, February 28, 2014

  Actual Average Record
Temperature  
Mean Temperature 1 °F -  
Max Temperature 14 °F - - ()
Min Temperature -13 °F - - ()
Degree Days  
Heating Degree Days 64    
Moisture  
Dew Point -12 °F    
Average Humidity 59    
Maximum Humidity 73    
Minimum Humidity 33    
Precipitation  
Precipitation 0.00 in - - ()
Sea Level Pressure  
Sea Level Pressure 30.22 in    
Wind  
Wind Speed 9 mph ()    
Max Wind Speed 12 mph    
Max Gust Speed 23 mph    
T = Trace of Precipitation, MM = Missing Value Source: Averaged Metar Reports

Daily Weather History Graph

Daily Weather History Graph

Search for Another Location

Airport:

Trip Planner

Search our weather history database for the weather conditions in past years. The results will help you decide how hot, cold, wet, or windy it might be!

Date:

Astronomy

Feb. 28, 2014 Rise Set
Actual Time 7:28 AM MST 6:21 PM MST
Civil Twilight 6:55 AM MST 6:54 PM MST
Nautical Twilight 6:17 AM MST 7:33 PM MST
Astronomical Twilight 5:38 AM MST 8:11 PM MST
Moon 6:47 AM MST 6:05 PM MST
Length of Visible Light 11h 59m
Length of Day
10h 52m
Waning Crescent, 0% of the Moon is Illuminated
Feb 28
Waning Crescent
Mar 1
New
Mar 8
First Quarter
Mar 16
Full
Mar 23
Last Quarter

Hourly Weather History & Observations

Time (MST) Temp. Windchill Dew Point Humidity Pressure Visibility Wind Dir Wind Speed Gust Speed Precip Events Conditions
12:00 AM 14.9 °F 2.3 °F 2.7 °F 58% 29.97 in - NE 10.4 mph 18.4 mph N/A   Unknown
1:00 AM 10.4 °F -2.4 °F 0.3 °F 64% 29.99 in - ENE 9.2 mph 19.6 mph N/A   Unknown
2:00 AM 7.5 °F -6.0 °F -0.6 °F 70% 30.02 in - ENE 9.2 mph 18.4 mph N/A   Unknown
3:00 AM 4.6 °F -11.3 °F -2.9 °F 71% 30.05 in - NE 11.5 mph 17.3 mph N/A   Unknown
4:00 AM 3.2 °F -13.1 °F -4.5 °F 70% 30.08 in - East 11.5 mph 18.4 mph N/A   Unknown
5:00 AM 1.6 °F -13.3 °F -5.3 °F 73% 30.09 in - NE 9.2 mph 18.4 mph N/A   Unknown
6:00 AM -0.0 °F -17.1 °F -7.4 °F 71% 30.13 in - East 11.5 mph 20.7 mph N/A   Unknown
7:00 AM -0.9 °F -18.3 °F -9.2 °F 68% 30.15 in - East 11.5 mph 23.0 mph N/A   Unknown
8:00 AM -2.0 °F -18.7 °F -9.9 °F 69% 30.17 in - NE 10.4 mph 17.3 mph N/A   Unknown
9:00 AM -1.1 °F -15.5 °F -11.6 °F 61% 30.19 in - NE 8.1 mph - N/A   Unknown
10:00 AM 1.0 °F -14.0 °F -12.8 °F 52% 30.20 in - East 9.2 mph 18.4 mph N/A   Unknown
11:00 AM 1.2 °F -14.7 °F -16.1 °F 44% 30.20 in - ENE 10.4 mph 17.3 mph N/A   Unknown
12:00 PM 2.8 °F -12.7 °F -16.8 °F 40% 30.22 in - ENE 10.4 mph 19.6 mph N/A   Unknown
1:00 PM 5.9 °F -7.0 °F -18.0 °F 33% 30.21 in - ENE 8.1 mph - N/A   Unknown
2:00 PM 5.2 °F -8.9 °F -17.5 °F 35% 30.21 in - ENE 9.2 mph - N/A   Unknown
3:00 PM 5.5 °F -8.4 °F -13.9 °F 41% 30.21 in - East 9.2 mph - N/A   Unknown
4:00 PM 3.9 °F -11.3 °F -13.7 °F 44% 30.24 in - ENE 10.4 mph - N/A   Unknown
5:00 PM -0.0 °F -17.1 °F -14.3 °F 51% 30.29 in - ENE 11.5 mph 18.4 mph N/A   Unknown
6:00 PM -3.5 °F -20.5 °F -15.0 °F 58% 30.33 in - ENE 10.4 mph 18.4 mph N/A   Unknown
7:00 PM -6.2 °F -22.8 °F -15.9 °F 63% 30.38 in - NE 9.2 mph - N/A   Unknown
8:00 PM -8.3 °F -27.5 °F -17.1 °F 65% 30.42 in - NNE 11.5 mph 18.4 mph N/A   Unknown
9:00 PM -10.5 °F -28.1 °F -18.4 °F 68% 30.45 in - NE 9.2 mph - N/A   Unknown
10:00 PM -12.3 °F -30.4 °F -19.7 °F 70% 30.47 in - ENE 9.2 mph - N/A   Unknown
11:00 PM -13.4 °F -29.0 °F -21.5 °F 67% 30.49 in - NE 6.9 mph - N/A   Unknown